sat.trackr.live / text

‹ back to catalog

STARLINK-4394

NORAD 53467 · 2022-099C

PAYLOAD ACTIVE UNKNOWN

§ Identity

Operator
Country
US
Launch date
2022-08-12
Launch site
AFWTR
Launch vehicle
Mass (kg)
RCS (m²)

Purposes: comms

External: N2YO · Heavens-Above · Gunter

§ Orbital elements

Epoch: 2026-09-20T04:00:03.000096Z

Period
93.36 min
Inclination
97.5434°
Eccentricity
0.0001471
Mean motion
15.42344856 rev/d
Perigee alt
438.2 km
Apogee alt
440.2 km
Semi-major
6,817.3 km
B*
3.0006e-2
RAAN
33.3710°
Arg perigee
91.9159°
Mean anomaly
13.8912°
Rev number
576

§ Raw data

STARLINK-43941 53467U 22099C   26263.16670139  .01424126  00000+0  30006-1 0  99982 53467  97.5434  33.3710 0001471  91.9159  13.8912 15.42344856  5767

JSON: /api/v1/satellites/53467 · /tle

For live sub-satellite position, see the globe view (requires WebGL).

§ Visibility from observer

Set your observer location to see the next 7 days of passes ≥ 10°. The values pass through the URL so the page stays shareable.

No JS? Fill the form by hand. The geolocation button needs JavaScript.